Home   Weather   Cairo   Past weeks
Flag for Egypt

Past Weather in Cairo, Egypt — Yesterday and Last 2 Weeks

Now
79 °F

Clear.


Feels Like: 81 °F
Forecast: 92 / 72 °F
Wind: 9 mph from North

Location: Cairo Airport

Current Time: Oct 15, 2019 at 9:27:56 pm

Latest Report: Oct 15, 2019 at 9:00 pm


Visibility: 10 mi

Pressure: 29.98 "Hg

Humidity: 74%

Dew Point: 70 °F

Location of CairoLocation

Past Weather in Cairo — Graph

°F

Cairo Temperature Yesterday

Maximum temperature yesterday: 91 °F (at 2:30 pm)
Minimum temperature yesterday: 73 °F (at 6:00 am)
Average temperature yesterday: 81 °F

High & Low Weather Summary for the Past Weeks

 TemperatureHumidityPressure
High95 °F (Oct 4, 12:30 pm)94% (Oct 12, 7:30 am)30.07 "Hg (Oct 12, 7:30 am)
Low70 °F (Oct 11, 5:30 am)17% (Oct 5, 1:00 pm)29.83 "Hg (Oct 1, 2:00 pm)
Average81 °F57%29.94 "Hg
* Reported Sep 30 8:00 pm — Oct 15 8:30 pm, Cairo. Weather by CustomWeather, © 2019

Note: Actual official high and low records may vary slightly from our data, if they occured in-between our weather recording intervals... More about our weather records

Advertising

Cairo Weather History for the Previous 24 Hours

Scroll right to see more
 ConditionsComfort  
Time TempWeatherWind HumidityBarometerVisibility
8:30 pm
Tue, Oct 15
81 °FClear.12 mph66%29.98 "Hg10 mi
8:00 pm82 °FClear.12 mph62%29.98 "Hg10 mi
7:30 pm82 °FClear.10 mph62%29.95 "Hg10 mi
7:00 pm84 °FClear.10 mph58%29.95 "Hg10 mi
6:30 pm86 °FClear.8 mph55%29.92 "Hg10 mi
6:00 pm86 °FClear.8 mph55%29.92 "Hg10 mi
5:30 pm86 °FClear.8 mph55%29.92 "Hg10 mi
5:00 pm88 °FSunny.8 mph52%29.89 "Hg10 mi
4:30 pm88 °FSunny.8 mph52%29.89 "Hg10 mi
4:00 pm88 °FSunny.9 mph52%29.89 "Hg10 mi
3:30 pm88 °FSunny.8 mph49%29.89 "Hg10 mi
3:00 pm88 °FSunny.12 mph52%29.89 "Hg10 mi
2:00 pm88 °FSunny.7 mph55%29.92 "Hg10 mi
1:30 pm88 °FSunny.6 mph52%29.92 "Hg10 mi
1:00 pm88 °FSunny.7 mph55%29.95 "Hg10 mi
12:30 pm88 °FSunny.6 mph52%29.95 "Hg10 mi
12:00 pm88 °FSunny.5 mph55%29.98 "Hg10 mi
11:30 am86 °FSunny.2 mph55%29.98 "Hg10 mi
11:00 am82 °FSunny.5 mph66%29.98 "Hg10 mi
10:00 am81 °FSunny.5 mph70%29.98 "Hg10 mi
9:30 am81 °FSunny.3 mph70%29.98 "Hg10 mi
9:00 am77 °FClear.3 mph83%29.98 "Hg4 mi
8:30 am77 °FClear.3 mph83%29.98 "Hg4 mi
8:00 am75 °FClear.6 mph89%29.98 "Hg4 mi
7:30 am75 °FClear.6 mph89%29.95 "Hg4 mi
7:00 am75 °FClear.3 mph89%29.95 "Hg4 mi
6:30 am75 °FSunny.3 mph83%29.95 "Hg10 mi
5:30 am75 °FClear.5 mph83%29.95 "Hg10 mi
5:00 am75 °FPassing clouds.6 mph83%29.95 "HgN/A
4:30 am75 °FPassing clouds.3 mph83%29.95 "Hg4 mi
4:00 am75 °FPassing clouds.5 mph89%29.95 "Hg4 mi
3:30 am75 °FPassing clouds.6 mph89%29.95 "Hg4 mi
3:00 am77 °FPassing clouds.7 mph83%29.95 "Hg4 mi
2:30 am75 °FPassing clouds.7 mph89%29.95 "HgN/A
1:30 am77 °FClear.5 mph79%29.95 "Hg4 mi
1:00 am77 °FClear.3 mph79%29.95 "Hg4 mi
12:30 am77 °FClear.3 mph79%29.98 "Hg4 mi
12:00 am77 °FClear.5 mph79%29.98 "Hg4 mi
11:30 pm
Mon, Oct 14
77 °FClear.5 mph74%29.98 "Hg4 mi
11:00 pm79 °FClear.6 mph70%29.98 "Hg4 mi
10:30 pm79 °FClear.6 mph65%29.98 "Hg4 mi
10:00 pm81 °FClear.3 mph62%29.98 "Hg4 mi
9:30 pm81 °FClear.5 mph62%29.98 "Hg4 mi
9:00 pm82 °FClear.7 mph55%29.98 "Hg4 mi
Weather by CustomWeather, © 2019

See weather overview